| time (UTC) | temp C | wind direction | speed KPH | gust KPH | rain 1hr cm | rain 24hr cm | rain mn cm | humidity % | barometer mb |
| 20260505030054 | 12 | 255 | 16.1 | 29.0 | 0.00 | 0.00 | 0.00 | 71 | 1010.3 |
| 20260505024553 | 11 | 221 | 11.3 | 29.0 | 0.00 | 0.00 | 0.00 | 74 | 1010.4 |
| 20260505023053 | 11 | 259 | 12.9 | 33.8 | 0.00 | 0.00 | 0.00 | 74 | 1010.3 |
| 20260505021554 | 11 | 257 | 12.9 | 24.1 | 0.00 | 0.00 | 0.00 | 75 | 1010.1 |
| 20260505020053 | 11 | 252 | 11.3 | 25.7 | 0.00 | 0.00 | 0.00 | 75 | 1010.0 |
| 20260505014550 | 11 | 255 | 16.1 | 29.0 | 0.00 | 0.00 | 0.00 | 75 | 1010.0 |
| 20260505013051 | 11 | 228 | 11.3 | 27.4 | 0.00 | 0.00 | 0.00 | 76 | 1009.8 |
| 20260505011607 | 11 | 248 | 11.3 | 25.7 | 0.00 | 0.00 | 0.00 | 76 | 1009.7 |
| 20260505010050 | 10 | 222 | 9.7 | 22.5 | 0.00 | 0.00 | 0.00 | 77 | 1009.5 |
| 20260505004547 | 10 | 223 | 12.9 | 20.9 | 0.00 | 0.00 | 0.00 | 79 | 1009.2 |
| 20260505003053 | 10 | 252 | 8.0 | 14.5 | 0.00 | 0.00 | 0.00 | 79 | 1009.0 |
| 20260505001602 | 10 | 204 | 6.4 | 16.1 | 0.00 | 0.00 | 0.00 | 78 | 1008.7 |
| 20260504234545 | 10 | 204 | 3.2 | 9.7 | 0.00 | 0.00 | 0.00 | 77 | 1008.4 |
| 20260504233102 | 10 | 224 | 6.4 | 14.5 | 0.00 | 0.00 | 0.00 | 75 | 1008.1 |
| 20260504231545 | 11 | 209 | 6.4 | 14.5 | 0.00 | 0.00 | 0.00 | 71 | 1007.8 |
| 20260504230042 | 12 | 195 | 1.6 | 6.4 | 0.00 | 0.00 | 0.00 | 66 | 1007.6 |
| 20260504224543 | 13 | 196 | 3.2 | 8.0 | 0.00 | 0.00 | 0.00 | 63 | 1007.6 |
| 20260504223042 | 14 | 178 | 1.6 | 8.0 | 0.00 | 0.00 | 0.00 | 59 | 1007.3 |
| 20260504221543 | 16 | 196 | 1.6 | 14.5 | 0.00 | 0.00 | 0.00 | 52 | 1007.2 |
| 20260504220040 | 19 | 173 | 8.0 | 16.1 | 0.00 | 0.00 | 0.00 | 43 | 1007.2 |
| 20260504214540 | 21 | 232 | 6.4 | 14.5 | 0.00 | 0.00 | 0.00 | 34 | 1007.2 |
| 20260504213039 | 21 | 244 | 9.7 | 19.3 | 0.00 | 0.00 | 0.00 | 33 | 1007.1 |
| 20260504211539 | 21 | 225 | 8.0 | 22.5 | 0.00 | 0.00 | 0.00 | 33 | 1007.1 |
| 20260504210038 | 21 | 257 | 9.7 | 24.1 | 0.00 | 0.00 | 0.00 | 33 | 1007.0 |
| 20260504204537 | 22 | 213 | 11.3 | 24.1 | 0.00 | 0.00 | 0.00 | 32 | 1007.1 |
| 20260504203037 | 22 | 246 | 12.9 | 32.2 | 0.00 | 0.00 | 0.00 | 31 | 1007.1 |
| 20260504201534 | 22 | 293 | 4.8 | 27.4 | 0.00 | 0.00 | 0.00 | 33 | 1007.0 |
| 20260504200034 | 21 | 211 | 4.8 | 22.5 | 0.00 | 0.00 | 0.00 | 35 | 1007.1 |
| 20260504194535 | 22 | 215 | 9.7 | 14.5 | 0.00 | 0.00 | 0.00 | 33 | 1007.1 |
| 20260504193028 | 20 | 298 | 8.0 | 16.1 | 0.00 | 0.00 | 0.00 | 35 | 1007.1 |
| 20260504191526 | 19 | 260 | 4.8 | 19.3 | 0.00 | 0.00 | 0.00 | 37 | 1007.4 |
| 20260504190027 | 18 | 264 | 3.2 | 32.2 | 0.00 | 0.00 | 0.00 | 38 | 1007.5 |
| 20260504184525 | 18 | 269 | 9.7 | 22.5 | 0.00 | 0.00 | 0.00 | 36 | 1007.6 |
| 20260504183024 | 19 | 301 | 14.5 | 25.7 | 0.00 | 0.00 | 0.00 | 34 | 1007.5 |
| 20260504181522 | 19 | 245 | 9.7 | 24.1 | 0.00 | 0.00 | 0.00 | 36 | 1007.2 |
| 20260504180018 | 18 | 274 | 11.3 | 27.4 | 0.00 | 0.00 | 0.00 | 40 | 1007.4 |
| 20260504174514 | 16 | 235 | 11.3 | 27.4 | 0.00 | 0.00 | 0.00 | 48 | 1007.3 |
| 20260504173012 | 16 | 209 | 12.9 | 27.4 | 0.00 | 0.00 | 0.00 | 53 | 1007.4 |
| 20260504171512 | 15 | 233 | 16.1 | 25.7 | 0.00 | 0.00 | 0.00 | 58 | 1007.5 |
| 20260504160108 | 13 | 261 | 9.7 | 25.7 | 0.00 | 0.00 | 0.00 | 62 | 1008.2 |
| 20260504100104 | 6 | 251 | 4.8 | 14.5 | 0.00 | 0.00 | 0.00 | 64 | 1011.1 |
| 20260504090108 | 6 | 270 | 8.0 | 19.3 | 0.00 | 0.00 | 0.00 | 59 | 1010.7 |
| 20260504081552 | 6 | 228 | 6.4 | 17.7 | 0.00 | 0.00 | 0.00 | 60 | 1011.0 |
| 20260504050023 | 5 | 244 | 3.2 | 11.3 | 0.00 | 0.00 | 0.00 | 70 | 1010.8 |
| 20260504044521 | 4 | 233 | 4.8 | 17.7 | 0.00 | 0.00 | 0.00 | 70 | 1010.6 |
| 20260504043020 | 4 | 255 | 4.8 | 11.3 | 0.00 | 0.00 | 0.00 | 69 | 1010.6 |
| 20260504041520 | 4 | 246 | 3.2 | 8.0 | 0.00 | 0.00 | 0.00 | 69 | 1010.6 |
| 20260504040014 | 3 | 257 | 1.6 | 9.7 | 0.00 | 0.00 | 0.00 | 68 | 1010.4 |
| 20260504034510 | 3 | 260 | 1.6 | 8.0 | 0.00 | 0.00 | 0.00 | 70 | 1010.4 |
| 20260504033013 | 3 | 250 | 0.0 | 4.8 | 0.00 | 0.00 | 0.00 | 71 | 1010.3 |